Weather in Novo-Osetinskiy

Russia / The Kabardino-Balkar Republic     43°41′22″N   43°47′53″E
temp.,
°C
wind,
m/s
gust,
m/s
humid.,
%
clouds,
%
prec.,
mm/h
press.,
hPa
HPBL,
m
20 january, wed
wed2000:00−3e2395100 0.8 1024281
03:00−4ese2591100 1.2 1023227
06:00−6ssw229295 0.0 102321
09:00−5wnw247896 0.0 1024146
12:00−3nnw3483100 0.0 1023483
15:00−2nnw2378100 0.1 1023542
18:00−4n2388100 0.1 102682
21:00−5wnw1189100 0.2 102838
21 january, thu
thu2100:00−7sw338267 0.0 103062
03:00−7w227442 0.0 103021
06:00−8w11660 0.0 103221
09:00−6sw12600 0.0 103269
12:00−2sse11530 0.0 1032255
15:000se12560 0.0 1031283
18:00−4s11690 0.0 103421
21:00−4sw22700 0.0 103421
22 january, fri
fri2200:00−4sw22610 0.0 103421
03:00−4ssw23550 0.0 103321
06:00−4ssw22520 0.0 103221
09:00−2ssw12530 0.0 103224
12:00+3sse12480 0.0 1030122
15:00+4sse12530 0.0 102891
18:000sse12550 0.0 103022
21:00−1ssw11600 0.0 103021
23 january, sat
sat2300:00−2ssw11580 0.0 102921
03:00−2s11550 0.0 102821
06:00−3s11560 0.0 102821
09:00−1sse11570 0.0 102821
12:00+2e12500 0.0 1025273
15:00+3ene22520 0.0 1024540
18:00−1ene01750 0.0 102621
21:00−2wnw00770 0.0 102621
24 january, sun
sun2400:00−2w007746 0.0 102521
03:00−3nnw017737 0.0 102421
06:00−3w007712 0.0 102421
09:00−1sse116718 0.0 102335
12:00+2ese22520 0.0 1021294
15:00+4ese23490 0.0 1019373
18:000ese226825 0.0 102121
21:00−2e117631 0.0 102121